Miscellaneous Local Product
Issued by NWS Hastings, NE

Home | Current Version | Previous Version | Text Only | Print | Product List | Glossary On
Versions: 1 2 3 4 5 6 7 8 9 10 11 12 13 14 15 16 17 18 19 20 21 22 23 24 25 26 27 28 29 30 31 32 33 34 35 36 37 38 39 40 41 42 43 44 45 46 47 48 49 50
000
AXUS43 KGID 011202
MISGRI

GID CWA HOURLY WEATHER ROUNDUP
NATIONAL WEATHER SERVICE HASTINGS NE
700 AM CDT MON SEP 01 2014

NOTE: "FAIR" INDICATES FEW OR NO CLOUDS BELOW 12,000 FEET WITH NO
SIGNIFICANT WEATHER AND/OR OBSTRUCTIONS TO VISIBILITY.

...SOUTH CENTRAL NEBRASKA...

CITY           SKY/WX    TMP DP  RH WIND       PRES   REMARKS
GRAND ISLAND   CLEAR     57  54  89 NW9       29.86R
HASTINGS       CLEAR     57  53  86 NW12      29.86R
KEARNEY        PTCLDY    55  52  88 W8        29.89R
ORD            CLEAR     55  53  93 NW8       29.86R
YORK           CLEAR     59 N/A N/A NW9       29.83R
AURORA         CLEAR     57  57  99 NW9       29.84S
LEXINGTON      CLEAR     52  51  96 W7        29.92R
HOLDREGE       PTCLDY    56  53  91 CALM      29.90R
HEBRON         CLEAR     60  56  84 NW7       29.85R

...NEBRASKA PANHANDLE...

CITY           SKY/WX    TMP DP  RH WIND       PRES   REMARKS
CHADRON        PTCLDY    48  46  93 SW3       29.95R
ALLIANCE       PTCLDY    46  44  93 SW9       29.98R
SCOTTSBLUFF    CLEAR     48  47  96 NW6       30.00S
SIDNEY         MOCLDY    48  44  86 NW7       30.01S

...WESTERN AND NORTH CENTRAL NEBRASKA...

CITY           SKY/WX    TMP DP  RH WIND       PRES   REMARKS
VALENTINE      CLEAR     50  49  96 SW9       29.91R
AINSWORTH      CLEAR     52  51  95 W3        29.90R
ONEILL         CLEAR     57  56  96 W8        29.85R
BROKEN BOW     CLEAR     55  52  89 NW12      29.90R
IMPERIAL       PTCLDY    52  48  86 NW6       29.98R
NORTH PLATTE   CLEAR     50  49  96 SW3       29.95R
MCCOOK         MOCLDY    56  52  86 W9        29.94S

...EASTERN NEBRASKA...

CITY           SKY/WX    TMP DP  RH WIND       PRES   REMARKS
NORFOLK        CLEAR     59  57  93 W7        29.81R
SO SIOUX CITY  PTCLDY    60  58  92 W5        29.76R
TEKAMAH        PTCLDY    62  60  93 W5        29.77R
ALBION         CLEAR     57  54  88 NW6       29.85R
OMAHA EPPLEY   MOCLDY    67  63  87 SW9       29.77R
OFFUTT AFB     MOCLDY    68  68 100 S3        29.77R
MILLARD        CLOUDY    67  64  89 W3        29.78R
LINCOLN        CLEAR     62  58  86 CALM      29.82R
NEBRASKA CITY  PTCLDY    67  67 100 SW14      29.80R
BEATRICE       MOCLDY    66  66  99 W5        29.83R
FALLS CITY     CLOUDY    69  65  86 SW10      29.82R

...NORTHERN KANSAS...

CITY           SKY/WX    TMP DP  RH WIND       PRES   REMARKS
GOODLAND       CLEAR     50  49  96 NW8       30.01R
HILL CITY      CLEAR     57  54  89 W5        29.92R
NORTON         CLOUDY    57  52  82 NW13      29.91R
PHILLIPSBURG   CLEAR     59  57  94 W5        29.90R
SMITH CENTER   CLEAR     57  55  94 NW6       29.89R
HAYS           CLEAR     63  55  77 N7        29.90R
RUSSELL        CLEAR     63  61  93 SW3       29.87R
CONCORDIA      CLEAR     61  61 100 S5        29.85R
SALINA         PTCLDY    63  61  93 NW3       29.86R
TOPEKA         CLOUDY    68  65  90 S10       29.84R



USA.gov is the U.S. government's official web portal to all federal, state and local government web resources and services.